"Sample Date","Sample Time","Sample Value","Units","Flow Rate","Sample Interval","Number Channels","Micron Size 0","Counts/Channel 0","Micron Size 1","Counts/Channel 1","Micron Size 2","Counts/Channel 2","Micron Size 3","Counts/Channel 3","Micron Size 4","Counts/Channel 4","Micron Size 5","Counts/Channel 5","Micron Size 6","Counts/Channel 6","Micron Size 7","Counts/Channel 7","Micron Size 8","Counts/Channel 8","Micron Size 9","Counts/Channel 9","Micron Size 10","Counts/Channel 10","Micron Size 11","Counts/Channel 11","Micron Size 12","Counts/Channel 12","Micron Size 13","Counts/Channel 13","Micron Size 14","Counts/Channel 14","Micron Size 15","Counts/Channel 15","Micron Size 16","Counts/Channel 16","Micron Size 17","Counts/Channel 17","Micron Size 18","Counts/Channel 18","Micron Size 19","Counts/Channel 19","Micron Size 20","Counts/Channel 20","Micron Size 21","Counts/Channel 21","Micron Size 22","Counts/Channel 22","Micron Size 23","Counts/Channel 23","Micron Size 24","Counts/Channel 24","Micron Size 25","Counts/Channel 25","Micron Size 26","Counts/Channel 26","Micron Size 27","Counts/Channel 27","Micron Size 28","Counts/Channel 28","Micron Size 29","Counts/Channel 29","Micron Size 30","Counts/Channel 30","Micron Size 31","Counts/Channel 31"
"04/02/08","08:00:01",16310.000,"cc",28303.930,6.00,6,0.100,14761.000,0.200,529.000,0.300,371.000,0.500,466.000,1.000,183.000,5.000,0
"04/02/08","08:00:07",16268.000,"cc",28316.397,6.00,6,0.100,14720.000,0.200,517.000,0.300,366.000,0.500,468.000,1.000,197.000,5.000,0
"04/02/08","08:00:13",15996.000,"cc",28309.000,6.00,6,0.100,14336.000,0.200,550.000,0.300,405.000,0.500,499.000,1.000,206.000,5.000,0
"04/02/08","08:00:19",16385.000,"cc",28357.938,6.00,6,0.100,14758.000,0.200,548.000,0.300,371.000,0.500,500.000,1.000,208.000,5.000,0
"04/02/08","08:00:25",16193.000,"cc",28299.723,6.00,6,0.100,14584.000,0.200,541.000,0.300,388.000,0.500,467.000,1.000,213.000,5.000,0
"04/02/08","08:00:31",16390.000,"cc",28317.820,6.00,6,0.100,14846.000,0.200,525.000,0.300,394.000,0.500,440.000,1.000,185.000,5.000,0
"04/02/08","08:00:37",16037.000,"cc",28405.289,6.00,6,0.100,14739.000,0.200,460.000,0.300,295.000,0.500,397.000,1.000,146.000,5.000,0
"04/02/08","08:00:43",16134.000,"cc",28306.006,6.00,6,0.100,14699.000,0.200,489.000,0.300,369.000,0.500,401.000,1.000,176.000,5.000,0
"04/02/08","08:00:49",16206.000,"cc",28331.883,6.00,6,0.100,14784.000,0.200,490.000,0.300,358.000,0.500,418.000,1.000,156.000,5.000,0
"04/02/08","08:00:55",16282.000,"cc",28325.033,6.00,6,0.100,14824.000,0.200,471.000,0.300,374.000,0.500,433.000,1.000,180.000,5.000,0
"04/02/08","08:01:01",16353.000,"cc",28267.934,6.00,6,0.100,14945.000,0.200,496.000,0.300,295.000,0.500,447.000,1.000,170.000,5.000,0
"04/02/08","08:01:07",16276.000,"cc",28240.082,6.00,6,0.100,14852.000,0.200,497.000,0.300,318.000,0.500,446.000,1.000,163.000,5.000,0
"04/02/08","08:01:13",16318.000,"cc",28415.453,6.00,6,0.100,14792.000,0.200,524.000,0.300,382.000,0.500,420.000,1.000,200.000,5.000,0
"04/02/08","08:01:19",16106.000,"cc",28313.232,6.00,6,0.100,14573.000,0.200,503.000,0.300,369.000,0.500,475.000,1.000,186.000,5.000,0
"04/02/08","08:01:25",16123.000,"cc",28307.525,6.00,6,0.100,14587.000,0.200,509.000,0.300,340.000,0.500,484.000,1.000,203.000,5.000,0
"04/02/08","08:01:31",16471.000,"cc",28306.811,6.00,6,0.100,14895.000,0.200,537.000,0.300,364.000,0.500,477.000,1.000,198.000,5.000,0
"04/02/08","08:01:37",16511.000,"cc",28334.469,6.00,6,0.100,14977.000,0.200,505.000,0.300,354.000,0.500,471.000,1.000,204.000,5.000,0
"04/02/08","08:01:43",16117.000,"cc",28299.213,6.00,6,0.100,14663.000,0.200,498.000,0.300,338.000,0.500,430.000,1.000,188.000,5.000,0
"04/02/08","08:01:49",16121.000,"cc",28267.397,6.00,6,0.100,14638.000,0.200,531.000,0.300,360.000,0.500,449.000,1.000,143.000,5.000,0
"04/02/08","08:01:55",16343.000,"cc",28414.195,6.00,6,0.100,14694.000,0.200,515.000,0.300,409.000,0.500,515.000,1.000,210.000,5.000,0
"04/02/08","08:02:01",16206.000,"cc",28317.285,6.00,6,0.100,14575.000,0.200,548.000,0.300,402.000,0.500,469.000,1.000,212.000,5.000,0
"04/02/08","08:02:07",16141.000,"cc",28179.459,6.00,6,0.100,14657.000,0.200,490.000,0.300,343.000,0.500,471.000,1.000,180.000,5.000,0
"04/02/08","08:02:13",16424.000,"cc",28334.629,6.00,6,0.100,14931.000,0.200,502.000,0.300,375.000,0.500,451.000,1.000,165.000,5.000,0
"04/02/08","08:02:19",15898.000,"cc",28327.393,6.00,6,0.100,14393.000,0.200,525.000,0.300,351.000,0.500,442.000,1.000,186.000,5.000,1.000
"04/02/08","08:02:25",16226.000,"cc",28398.951,6.00,6,0.100,14628.000,0.200,557.000,0.300,411.000,0.500,459.000,1.000,171.000,5.000,0
"04/02/08","08:02:31",16167.000,"cc",28365.141,6.00,6,0.100,14548.000,0.200,579.000,0.300,353.000,0.500,508.000,1.000,179.000,5.000,0
"04/02/08","08:02:37",16388.000,"cc",28319.842,6.00,6,0.100,14677.000,0.200,557.000,0.300,415.000,0.500,534.000,1.000,205.000,5.000,0
"04/02/08","08:02:43",15951.000,"cc",28301.211,6.00,6,0.100,14387.000,0.200,495.000,0.300,392.000,0.500,476.000,1.000,201.000,5.000,0
"04/02/08","08:02:49",15883.000,"cc",28313.191,6.00,6,0.100,14464.000,0.200,462.000,0.300,334.000,0.500,423.000,1.000,200.000,5.000,0
"04/02/08","08:02:55",15957.000,"cc",28196.941,6.00,6,0.100,14578.000,0.200,453.000,0.300,323.000,0.500,424.000,1.000,179.000,5.000,0
"04/02/08","08:03:01",16036.000,"cc",28295.340,6.00,6,0.100,14497.000,0.200,484.000,0.300,400.000,0.500,462.000,1.000,193.000,5.000,0
"04/02/08","08:03:07",16248.000,"cc",28324.842,6.00,6,0.100,14832.000,0.200,478.000,0.300,333.000,0.500,434.000,1.000,171.000,5.000,0
"04/02/08","08:03:13",16054.000,"cc",28371.732,6.00,6,0.100,14666.000,0.200,446.000,0.300,332.000,0.500,438.000,1.000,172.000,5.000,0
"04/02/08","08:03:19",15964.000,"cc",28350.004,6.00,6,0.100,14443.000,0.200,508.000,0.300,363.000,0.500,468.000,1.000,182.000,5.000,0
"04/02/08","08:03:25",16291.000,"cc",28250.164,6.00,6,0.100,14746.000,0.200,514.000,0.300,379.000,0.500,471.000,1.000,181.000,5.000,0
"04/02/08","08:03:31",15911.000,"cc",28393.455,6.00,6,0.100,14415.000,0.200,494.000,0.300,363.000,0.500,438.000,1.000,201.000,5.000,0
"04/02/08","08:03:37",16282.000,"cc",28307.742,6.00,6,0.100,14757.000,0.200,486.000,0.300,381.000,0.500,467.000,1.000,191.000,5.000,0
"04/02/08","08:03:43",16313.000,"cc",28245.840,6.00,6,0.100,14679.000,0.200,502.000,0.300,414.000,0.500,522.000,1.000,196.000,5.000,0
"04/02/08","08:03:49",16138.000,"cc",28344.902,6.00,6,0.100,14635.000,0.200,510.000,0.300,364.000,0.500,452.000,1.000,177.000,5.000,0
"04/02/08","08:03:55",16497.000,"cc",28305.258,6.00,6,0.100,14723.000,0.200,586.000,0.300,444.000,0.500,532.000,1.000,212.000,5.000,0
"04/02/08","08:04:01",16298.000,"cc",28324.027,6.00,6,0.100,14516.000,0.200,582.000,0.300,416.000,0.500,571.000,1.000,213.000,5.000,0
"04/02/08","08:04:07",16452.000,"cc",28322.797,6.00,6,0.100,14795.000,0.200,520.000,0.300,410.000,0.500,511.000,1.000,216.000,5.000,0
"04/02/08","08:04:13",16155.000,"cc",28355.807,6.00,6,0.100,14735.000,0.200,505.000,0.300,326.000,0.500,430.000,1.000,159.000,5.000,0
"04/02/08","08:04:19",16294.000,"cc",28236.432,6.00,6,0.100,14839.000,0.200,500.000,0.300,352.000,0.500,425.000,1.000,178.000,5.000,0
"04/02/08","08:04:25",16155.000,"cc",28315.311,6.00,6,0.100,14609.000,0.200,485.000,0.300,337.000,0.500,518.000,1.000,206.000,5.000,0
"04/02/08","08:04:31",16163.000,"cc",28344.711,6.00,6,0.100,14591.000,0.200,478.000,0.300,407.000,0.500,504.000,1.000,183.000,5.000,0
"04/02/08","08:04:37",16322.000,"cc",28357.535,6.00,6,0.100,14728.000,0.200,532.000,0.300,379.000,0.500,483.000,1.000,200.000,5.000,0
"04/02/08","08:04:43",16339.000,"cc",28338.969,6.00,6,0.100,14664.000,0.200,534.000,0.300,401.000,0.500,539.000,1.000,201.000,5.000,0
"04/02/08","08:04:49",16392.000,"cc",28376.785,6.00,6,0.100,14737.000,0.200,537.000,0.300,442.000,0.500,483.000,1.000,193.000,5.000,0
"04/02/08","08:04:55",16185.000,"cc",28281.014,6.00,6,0.100,14538.000,0.200,502.000,0.300,398.000,0.500,535.000,1.000,212.000,5.000,0
"04/02/08","08:05:01",16281.000,"cc",28360.815,6.00,6,0.100,14687.000,0.200,528.000,0.300,393.000,0.500,472.000,1.000,201.000,5.000,0
"04/02/08","08:05:07",16299.000,"cc",28387.826,6.00,6,0.100,14794.000,0.200,481.000,0.300,388.000,0.500,444.000,1.000,192.000,5.000,0
"04/02/08","08:05:13",15943.000,"cc",28268.990,6.00,6,0.100,14477.000,0.200,482.000,0.300,361.000,0.500,442.000,1.000,181.000,5.000,0
"04/02/08","08:05:19",15487.000,"cc",28346.436,6.00,6,0.100,14057.000,0.200,460.000,0.300,399.000,0.500,399.000,1.000,172.000,5.000,0
"04/02/08","08:05:25",15625.000,"cc",28209.082,6.00,6,0.100,14169.000,0.200,478.000,0.300,334.000,0.500,454.000,1.000,190.000,5.000,0
"04/02/08","08:05:31",15477.000,"cc",28246.100,6.00,6,0.100,13999.000,0.200,484.000,0.300,364.000,0.500,440.000,1.000,190.000,5.000,0
"04/02/08","08:05:37",15416.000,"cc",28364.506,6.00,6,0.100,13920.000,0.200,500.000,0.300,342.000,0.500,472.000,1.000,182.000,5.000,0
"04/02/08","08:05:43",15503.000,"cc",28321.932,6.00,6,0.100,14010.000,0.200,451.000,0.300,367.000,0.500,490.000,1.000,185.000,5.000,0
"04/02/08","08:05:49",15654.000,"cc",28258.084,6.00,6,0.100,14174.000,0.200,491.000,0.300,380.000,0.500,442.000,1.000,167.000,5.000,0
"04/02/08","08:05:55",15626.000,"cc",28319.715,6.00,6,0.100,14079.000,0.200,504.000,0.300,345.000,0.500,508.000,1.000,190.000,5.000,0
"04/02/08","08:06:01",15873.000,"cc",28354.639,6.00,6,0.100,14190.000,0.200,556.000,0.300,398.000,0.500,507.000,1.000,222.000,5.000,0
"04/02/08","08:06:07",16227.000,"cc",28303.818,6.00,6,0.100,14531.000,0.200,522.000,0.300,457.000,0.500,509.000,1.000,208.000,5.000,0
"04/02/08","08:06:13",16088.000,"cc",28267.852,6.00,6,0.100,14507.000,0.200,524.000,0.300,391.000,0.500,475.000,1.000,191.000,5.000,0
"04/02/08","08:06:19",16078.000,"cc",28363.002,6.00,6,0.100,14605.000,0.200,494.000,0.300,375.000,0.500,414.000,1.000,190.000,5.000,0
"04/02/08","08:06:25",15858.000,"cc",28405.629,6.00,6,0.100,14402.000,0.200,473.000,0.300,341.000,0.500,454.000,1.000,188.000,5.000,0
"04/02/08","08:06:31",16069.000,"cc",28368.500,6.00,6,0.100,14502.000,0.200,506.000,0.300,383.000,0.500,484.000,1.000,194.000,5.000,0
"04/02/08","08:06:37",16052.000,"cc",28294.871,6.00,6,0.100,14451.000,0.200,532.000,0.300,378.000,0.500,467.000,1.000,224.000,5.000,0
"04/02/08","08:06:43",16461.000,"cc",28231.053,6.00,6,0.100,14831.000,0.200,532.000,0.300,403.000,0.500,481.000,1.000,214.000,5.000,0
"04/02/08","08:06:49",16463.000,"cc",28259.125,6.00,6,0.100,14884.000,0.200,503.000,0.300,361.000,0.500,491.000,1.000,224.000,5.000,0
"04/02/08","08:06:55",16437.000,"cc",28345.258,6.00,6,0.100,14815.000,0.200,516.000,0.300,411.000,0.500,470.000,1.000,225.000,5.000,0
"04/02/08","08:07:01",16352.000,"cc",28190.996,6.00,6,0.100,14656.000,0.200,522.000,0.300,410.000,0.500,547.000,1.000,217.000,5.000,0
"04/02/08","08:07:07",16414.000,"cc",28352.553,6.00,6,0.100,14815.000,0.200,523.000,0.300,375.000,0.500,490.000,1.000,211.000,5.000,0
"04/02/08","08:07:13",16571.000,"cc",28372.391,6.00,6,0.100,15036.000,0.200,530.000,0.300,346.000,0.500,437.000,1.000,222.000,5.000,0
"04/02/08","08:07:19",16466.000,"cc",28281.840,6.00,6,0.100,14975.000,0.200,487.000,0.300,354.000,0.500,453.000,1.000,197.000,5.000,0
"04/02/08","08:07:25",16493.000,"cc",28304.213,6.00,6,0.100,14996.000,0.200,545.000,0.300,331.000,0.500,448.000,1.000,173.000,5.000,0
"04/02/08","08:07:31",16359.000,"cc",28422.535,6.00,6,0.100,14812.000,0.200,502.000,0.300,387.000,0.500,478.000,1.000,180.000,5.000,0
"04/02/08","08:07:37",16543.000,"cc",28343.760,6.00,6,0.100,15096.000,0.200,471.000,0.300,328.000,0.500,472.000,1.000,176.000,5.000,0
"04/02/08","08:07:43",16540.000,"cc",28255.213,6.00,6,0.100,14950.000,0.200,503.000,0.300,400.000,0.500,479.000,1.000,208.000,5.000,0
"04/02/08","08:07:49",16558.000,"cc",28291.709,6.00,6,0.100,15110.000,0.200,475.000,0.300,342.000,0.500,447.000,1.000,184.000,5.000,0
"04/02/08","08:07:55",16759.000,"cc",28267.088,6.00,6,0.100,15242.000,0.200,502.000,0.300,343.000,0.500,475.000,1.000,197.000,5.000,0
"04/02/08","08:08:01",16537.000,"cc",28349.971,6.00,6,0.100,14863.000,0.200,548.000,0.300,399.000,0.500,495.000,1.000,232.000,5.000,0
"04/02/08","08:08:07",16531.000,"cc",28313.242,6.00,6,0.100,15051.000,0.200,462.000,0.300,325.000,0.500,478.000,1.000,215.000,5.000,0
"04/02/08","08:08:13",16433.000,"cc",28308.199,6.00,6,0.100,14917.000,0.200,491.000,0.300,378.000,0.500,443.000,1.000,204.000,5.000,0
"04/02/08","08:08:19",16491.000,"cc",28291.318,6.00,6,0.100,14927.000,0.200,517.000,0.300,379.000,0.500,455.000,1.000,213.000,5.000,0
"04/02/08","08:08:25",16414.000,"cc",28333.523,6.00,6,0.100,14852.000,0.200,529.000,0.300,362.000,0.500,467.000,1.000,204.000,5.000,0
"04/02/08","08:08:31",16444.000,"cc",28323.096,6.00,6,0.100,14982.000,0.200,463.000,0.300,366.000,0.500,439.000,1.000,194.000,5.000,0
"04/02/08","08:08:37",16476.000,"cc",28354.584,6.00,6,0.100,14973.000,0.200,524.000,0.300,327.000,0.500,460.000,1.000,192.000,5.000,0
"04/02/08","08:08:43",16378.000,"cc",28314.381,6.00,6,0.100,14861.000,0.200,503.000,0.300,347.000,0.500,482.000,1.000,185.000,5.000,0
"04/02/08","08:08:49",16433.000,"cc",28423.289,6.00,6,0.100,14932.000,0.200,510.000,0.300,359.000,0.500,447.000,1.000,185.000,5.000,0
"04/02/08","08:08:55",16559.000,"cc",28316.170,6.00,6,0.100,15103.000,0.200,473.000,0.300,346.000,0.500,424.000,1.000,213.000,5.000,0
"04/02/08","08:09:01",16490.000,"cc",28214.068,6.00,6,0.100,14971.000,0.200,513.000,0.300,357.000,0.500,466.000,1.000,183.000,5.000,0
"04/02/08","08:09:07",16538.000,"cc",28313.270,6.00,6,0.100,14977.000,0.200,514.000,0.300,390.000,0.500,447.000,1.000,210.000,5.000,0
"04/02/08","08:09:13",16532.000,"cc",28294.043,6.00,6,0.100,14956.000,0.200,530.000,0.300,382.000,0.500,468.000,1.000,196.000,5.000,0
"04/02/08","08:09:19",16775.000,"cc",28345.799,6.00,6,0.100,15071.000,0.200,548.000,0.300,438.000,0.500,517.000,1.000,201.000,5.000,0
"04/02/08","08:09:25",16910.000,"cc",28276.576,6.00,6,0.100,15089.000,0.200,566.000,0.300,442.000,0.500,590.000,1.000,223.000,5.000,0
"04/02/08","08:09:31",16707.000,"cc",28327.027,6.00,6,0.100,14938.000,0.200,535.000,0.300,442.000,0.500,552.000,1.000,240.000,5.000,0
"04/02/08","08:09:37",16832.000,"cc",28371.070,6.00,6,0.100,15043.000,0.200,542.000,0.300,459.000,0.500,542.000,1.000,246.000,5.000,0
"04/02/08","08:09:43",16490.000,"cc",28270.957,6.00,6,0.100,14869.000,0.200,510.000,0.300,370.000,0.500,521.000,1.000,220.000,5.000,0
"04/02/08","08:09:49",16596.000,"cc",28351.928,6.00,6,0.100,14823.000,0.200,562.000,0.300,435.000,0.500,536.000,1.000,240.000,5.000,0
"04/02/08","08:09:55",16820.000,"cc",28379.254,6.00,6,0.100,15091.000,0.200,539.000,0.300,433.000,0.500,551.000,1.000,206.000,5.000,0
"04/02/08","08:10:01",16312.000,"cc",28251.006,6.00,6,0.100,14717.000,0.200,501.000,0.300,385.000,0.500,499.000,1.000,210.000,5.000,0
"04/02/08","08:10:07",16374.000,"cc",28333.500,6.00,6,0.100,14844.000,0.200,469.000,0.300,394.000,0.500,468.000,1.000,199.000,5.000,0
"04/02/08","08:10:13",16310.000,"cc",28185.984,6.00,6,0.100,14847.000,0.200,505.000,0.300,324.000,0.500,418.000,1.000,216.000,5.000,0
"04/02/08","08:10:19",16559.000,"cc",28318.150,6.00,6,0.100,15125.000,0.200,482.000,0.300,330.000,0.500,434.000,1.000,188.000,5.000,0
"04/02/08","08:10:25",16386.000,"cc",28338.451,6.00,6,0.100,14848.000,0.200,512.000,0.300,360.000,0.500,478.000,1.000,188.000,5.000,0
"04/02/08","08:10:31",15965.000,"cc",28318.807,6.00,6,0.100,14437.000,0.200,484.000,0.300,375.000,0.500,468.000,1.000,201.000,5.000,0
"04/02/08","08:10:37",16269.000,"cc",28309.018,6.00,6,0.100,14780.000,0.200,485.000,0.300,371.000,0.500,417.000,1.000,216.000,5.000,0
"04/02/08","08:10:43",16107.000,"cc",28386.443,6.00,6,0.100,14550.000,0.200,506.000,0.300,371.000,0.500,497.000,1.000,183.000,5.000,0
"04/02/08","08:10:49",16400.000,"cc",28280.971,6.00,6,0.100,14881.000,0.200,500.000,0.300,375.000,0.500,447.000,1.000,197.000,5.000,0
"04/02/08","08:10:55",16282.000,"cc",28280.830,6.00,6,0.100,14861.000,0.200,481.000,0.300,335.000,0.500,442.000,1.000,163.000,5.000,0
"04/02/08","08:11:01",15754.000,"cc",28299.115,6.00,6,0.100,14322.000,0.200,469.000,0.300,367.000,0.500,417.000,1.000,179.000,5.000,0
"04/02/08","08:11:07",16282.000,"cc",28353.746,6.00,6,0.100,14819.000,0.200,447.000,0.300,350.000,0.500,456.000,1.000,210.000,5.000,0
"04/02/08","08:11:13",16115.000,"cc",28368.799,6.00,6,0.100,14561.000,0.200,522.000,0.300,389.000,0.500,456.000,1.000,187.000,5.000,0
"04/02/08","08:11:19",16113.000,"cc",28318.424,6.00,6,0.100,14679.000,0.200,471.000,0.300,343.000,0.500,442.000,1.000,178.000,5.000,0
"04/02/08","08:11:25",16199.000,"cc",28359.711,6.00,6,0.100,14794.000,0.200,478.000,0.300,350.000,0.500,394.000,1.000,183.000,5.000,0
"04/02/08","08:11:31",15903.000,"cc",28272.568,6.00,6,0.100,14520.000,0.200,490.000,0.300,336.000,0.500,386.000,1.000,171.000,5.000,0
"04/02/08","08:11:37",16062.000,"cc",28333.477,6.00,6,0.100,14714.000,0.200,485.000,0.300,312.000,0.500,387.000,1.000,164.000,5.000,0
"04/02/08","08:11:43",15768.000,"cc",28357.711,6.00,6,0.100,14401.000,0.200,438.000,0.300,318.000,0.500,436.000,1.000,175.000,5.000,0
"04/02/08","08:11:49",16114.000,"cc",28284.977,6.00,6,0.100,14589.000,0.200,446.000,0.300,398.000,0.500,504.000,1.000,177.000,5.000,0
"04/02/08","08:11:55",15883.000,"cc",28297.518,6.00,6,0.100,14405.000,0.200,491.000,0.300,369.000,0.500,444.000,1.000,174.000,5.000,0
"04/02/08","08:12:01",16024.000,"cc",28315.176,6.00,6,0.100,14486.000,0.200,477.000,0.300,398.000,0.500,479.000,1.000,184.000,5.000,0
"04/02/08","08:12:07",16140.000,"cc",28359.297,6.00,6,0.100,14570.000,0.200,511.000,0.300,365.000,0.500,506.000,1.000,188.000,5.000,0
"04/02/08","08:12:13",16623.000,"cc",28259.359,6.00,6,0.100,14998.000,0.200,518.000,0.300,372.000,0.500,510.000,1.000,225.000,5.000,0
"04/02/08","08:12:19",15994.000,"cc",28230.309,6.00,6,0.100,14453.000,0.200,510.000,0.300,372.000,0.500,465.000,1.000,194.000,5.000,0
"04/02/08","08:12:25",16532.000,"cc",28380.840,6.00,6,0.100,14984.000,0.200,510.000,0.300,379.000,0.500,465.000,1.000,194.000,5.000,0
"04/02/08","08:12:31",16850.000,"cc",28342.918,6.00,6,0.100,15183.000,0.200,550.000,0.300,390.000,0.500,505.000,1.000,222.000,5.000,0
"04/02/08","08:12:37",16398.000,"cc",28344.264,6.00,6,0.100,14871.000,0.200,529.000,0.300,357.000,0.500,439.000,1.000,202.000,5.000,0
"04/02/08","08:12:43",16348.000,"cc",28329.166,6.00,6,0.100,14851.000,0.200,506.000,0.300,344.000,0.500,465.000,1.000,182.000,5.000,0
"04/02/08","08:12:49",16723.000,"cc",28282.002,6.00,6,0.100,15159.000,0.200,497.000,0.300,397.000,0.500,479.000,1.000,191.000,5.000,0
"04/02/08","08:12:55",16749.000,"cc",28320.797,6.00,6,0.100,15111.000,0.200,520.000,0.300,407.000,0.500,524.000,1.000,187.000,5.000,0
"04/02/08","08:13:01",16851.000,"cc",28282.182,6.00,6,0.100,15205.000,0.200,559.000,0.300,375.000,0.500,513.000,1.000,199.000,5.000,0
"04/02/08","08:13:07",16906.000,"cc",28349.205,6.00,6,0.100,15394.000,0.200,459.000,0.300,389.000,0.500,467.000,1.000,197.000,5.000,0
"04/02/08","08:13:13",17219.000,"cc",28360.387,6.00,6,0.100,15575.000,0.200,557.000,0.300,344.000,0.500,537.000,1.000,206.000,5.000,0
"04/02/08","08:13:19",16947.000,"cc",28327.275,6.00,6,0.100,15392.000,0.200,501.000,0.300,356.000,0.500,516.000,1.000,182.000,5.000,0
"04/02/08","08:13:25",16770.000,"cc",28246.219,6.00,6,0.100,15158.000,0.200,526.000,0.300,392.000,0.500,468.000,1.000,226.000,5.000,0
"04/02/08","08:13:31",16632.000,"cc",28329.420,6.00,6,0.100,15053.000,0.200,537.000,0.300,327.000,0.500,500.000,1.000,215.000,5.000,0
"04/02/08","08:13:37",16973.000,"cc",28315.854,6.00,6,0.100,15456.000,0.200,476.000,0.300,373.000,0.500,480.000,1.000,188.000,5.000,0
"04/02/08","08:13:43",16916.000,"cc",28309.863,6.00,6,0.100,15164.000,0.200,565.000,0.300,441.000,0.500,530.000,1.000,216.000,5.000,0
"04/02/08","08:13:49",16598.000,"cc",28355.596,6.00,6,0.100,14896.000,0.200,575.000,0.300,405.000,0.500,508.000,1.000,214.000,5.000,0
"04/02/08","08:13:55",16770.000,"cc",28331.822,6.00,6,0.100,15085.000,0.200,538.000,0.300,413.000,0.500,514.000,1.000,220.000,5.000,0
"04/02/08","08:14:01",16941.000,"cc",28324.721,6.00,6,0.100,15326.000,0.200,507.000,0.300,421.000,0.500,511.000,1.000,176.000,5.000,0
"04/02/08","08:14:07",16492.000,"cc",28242.998,6.00,6,0.100,15045.000,0.200,470.000,0.300,345.000,0.500,446.000,1.000,186.000,5.000,0
"04/02/08","08:14:13",16415.000,"cc",28353.398,6.00,6,0.100,14948.000,0.200,460.000,0.300,359.000,0.500,450.000,1.000,198.000,5.000,0
"04/02/08","08:14:19",16519.000,"cc",28316.803,6.00,6,0.100,15031.000,0.200,478.000,0.300,365.000,0.500,447.000,1.000,198.000,5.000,0
"04/02/08","08:14:25",16405.000,"cc",28335.068,6.00,6,0.100,14871.000,0.200,442.000,0.300,405.000,0.500,504.000,1.000,183.000,5.000,0
"04/02/08","08:14:31",16294.000,"cc",28290.318,6.00,6,0.100,14821.000,0.200,489.000,0.300,338.000,0.500,456.000,1.000,190.000,5.000,0
"04/02/08","08:14:37",16548.000,"cc",28367.020,6.00,6,0.100,15069.000,0.200,459.000,0.300,366.000,0.500,459.000,1.000,195.000,5.000,0
"04/02/08","08:14:43",17082.000,"cc",28335.572,6.00,6,0.100,15427.000,0.200,523.000,0.300,383.000,0.500,522.000,1.000,227.000,5.000,0
"04/02/08","08:14:49",16870.000,"cc",28251.533,6.00,6,0.100,15282.000,0.200,501.000,0.300,362.000,0.500,476.000,1.000,249.000,5.000,0
"04/02/08","08:14:55",17344.000,"cc",28339.779,6.00,6,0.100,15539.000,0.200,569.000,0.300,435.000,0.500,549.000,1.000,252.000,5.000,0
"04/02/08","08:15:01",17154.000,"cc",28269.842,6.00,6,0.100,15418.000,0.200,522.000,0.300,439.000,0.500,549.000,1.000,226.000,5.000,0
"04/02/08","08:15:07",16956.000,"cc",28350.447,6.00,6,0.100,15266.000,0.200,532.000,0.300,394.000,0.500,543.000,1.000,221.000,5.000,0
"04/02/08","08:15:13",17062.000,"cc",28259.852,6.00,6,0.100,15315.000,0.200,529.000,0.300,416.000,0.500,567.000,1.000,235.000,5.000,0
"04/02/08","08:15:19",17121.000,"cc",28364.791,6.00,6,0.100,15364.000,0.200,565.000,0.300,428.000,0.500,522.000,1.000,242.000,5.000,0
"04/02/08","08:15:25",16990.000,"cc",28304.844,6.00,6,0.100,15319.000,0.200,530.000,0.300,403.000,0.500,524.000,1.000,214.000,5.000,0
"04/02/08","08:15:31",17441.000,"cc",28365.537,6.00,6,0.100,15586.000,0.200,606.000,0.300,425.000,0.500,569.000,1.000,255.000,5.000,0
"04/02/08","08:15:37",17006.000,"cc",28404.619,6.00,6,0.100,15265.000,0.200,550.000,0.300,405.000,0.500,540.000,1.000,246.000,5.000,0
"04/02/08","08:15:43",17273.000,"cc",28259.596,6.00,6,0.100,15479.000,0.200,535.000,0.300,425.000,0.500,572.000,1.000,262.000,5.000,0
"04/02/08","08:15:49",17184.000,"cc",28277.406,6.00,6,0.100,15517.000,0.200,511.000,0.300,388.000,0.500,554.000,1.000,214.000,5.000,0
"04/02/08","08:15:55",17310.000,"cc",28252.500,6.00,6,0.100,15586.000,0.200,545.000,0.300,439.000,0.500,517.000,1.000,223.000,5.000,0
"04/02/08","08:16:01",17207.000,"cc",28350.830,6.00,6,0.100,15594.000,0.200,488.000,0.300,365.000,0.500,513.000,1.000,247.000,5.000,0
"04/02/08","08:16:07",17154.000,"cc",28251.137,6.00,6,0.100,15501.000,0.200,498.000,0.300,407.000,0.500,530.000,1.000,218.000,5.000,0
"04/02/08","08:16:13",17475.000,"cc",28390.691,6.00,6,0.100,15634.000,0.200,556.000,0.300,444.000,0.500,579.000,1.000,262.000,5.000,0
"04/02/08","08:16:19",17021.000,"cc",28434.076,6.00,6,0.100,15344.000,0.200,515.000,0.300,374.000,0.500,545.000,1.000,243.000,5.000,0
"04/02/08","08:16:25",16732.000,"cc",28205.723,6.00,6,0.100,15066.000,0.200,531.000,0.300,397.000,0.500,511.000,1.000,227.000,5.000,0
"04/02/08","08:16:31",16558.000,"cc",28337.201,6.00,6,0.100,14994.000,0.200,468.000,0.300,401.000,0.500,472.000,1.000,223.000,5.000,0
"04/02/08","08:16:37",17104.000,"cc",28319.637,6.00,6,0.100,15356.000,0.200,544.000,0.300,418.000,0.500,529.000,1.000,257.000,5.000,0
"04/02/08","08:16:43",17082.000,"cc",28262.690,6.00,6,0.100,15486.000,0.200,516.000,0.300,364.000,0.500,523.000,1.000,193.000,5.000,0